Flag for Chile Weather past 2 weeks in Concepción, Chile

Now
61 °F

Passing clouds.


Feels Like: 61 °F
Forecast: 48 / 60 °F
Wind: 7 mph from Southwest

Location: Concepcion Airport

Current Time: May 22, 2015 at 5:08:20 PM

Latest Report: May 22, 2015 at 4:00 PM


Visibility: N/A

Pressure: 30.12 "Hg

Humidity: 59%

Dew point: 46 °F

Location of ConcepciónLocation

Historic Weather in Concepción — Graph

°F

Concepción temperature yesterday

Maximum temperature yesterday: 59 °F (at 1:00 PM)
Minimum temperature yesterday: 54 °F (at 9:00 AM)
Average temperature yesterday: 57 °F

Past Weeks' High & Low Weather Summary

 TemperatureHumidityPressure
High66 °F (May 11, 2:00 PM)100% (May 8, 11:00 PM)30.18 "Hg (May 8, 11:00 PM)
Low43 °F (May 13, 5:00 AM)59% (May 22, 3:00 PM)29.83 "Hg (May 8, 8:00 AM)
Average56 °F92%30.02 "Hg
* Reported May 7 4:00 PM — May 22 4:00 PM, Concepción, Weather by CustomWeather, © 2015

Note: Actual official high and low records may vary slightly from our data, if they occured in-between our weather recording intervals... More about our weather records

Advertising

Concepción weather history for previous 24 hours

 ConditionsComfort  
Time TempWeatherWind HumidityBarometerVisibility
4:00 PM
Fri, May 22
61 °FPassing clouds.7 mph59%30.12 "HgN/A
3:00 PM61 °FPassing clouds.6 mph59%30.12 "HgN/A
2:00 PM59 °FScattered clouds.6 mph68%30.12 "HgN/A
1:00 PM57 °FPartly sunny.8 mph82%30.15 "HgN/A
12:00 PM55 °FPartly sunny.6 mph94%30.15 "HgN/A
11:00 AM52 °FFog.3 mph94%30.15 "Hg2 mi
10:00 AM50 °FFog.2 mph100%30.15 "Hg1 mi
9:00 AM48 °FFog.No wind100%30.12 "Hg1 mi
8:00 AM50 °FFog.2 mph100%30.12 "Hg1 mi
7:00 AM52 °FFog.No wind94%30.12 "Hg3 mi
6:00 AM52 °FFog.No wind100%30.12 "Hg3 mi
5:00 AM52 °FPassing clouds.2 mph100%30.12 "HgN/A
4:00 AM52 °FFog.2 mph100%30.12 "Hg4 mi
3:00 AM54 °FPassing clouds.2 mph94%30.15 "HgN/A
2:00 AM54 °FPassing clouds.3 mph100%30.15 "HgN/A
1:00 AM54 °FPassing clouds.No wind100%30.15 "HgN/A
12:00 AM54 °FPassing clouds.No wind94%30.18 "HgN/A
11:00 PM
Thu, May 21
54 °FPassing clouds.2 mph100%30.18 "HgN/A
10:00 PM55 °FPartly cloudy.5 mph94%30.18 "HgN/A
9:00 PM55 °FMostly cloudy.3 mph94%30.15 "HgN/A
8:00 PM54 °FPartly cloudy.3 mph100%30.15 "HgN/A
7:00 PM57 °FPartly cloudy.6 mph88%30.15 "HgN/A
6:00 PM57 °FPassing clouds.8 mph94%30.15 "HgN/A
5:00 PM59 °FPartly sunny.9 mph88%30.12 "HgN/A
Weather by CustomWeather, © 2015

See weather overviewHow to use our weather pages